Flag for Germany Weather past 2 weeks in Prenzlau, Brandenburg, Germany

Now
57 °F

Fog.


Feels Like: 57 °F
Forecast: 50 / 69 °F
Wind: 2 mph from South

Location: Szczecin Airport

Current Time: Oct 1, 2014 at 8:43:59 AM

Latest Report: Oct 1, 2014 at 8:00 AM


Visibility: 1 mi

Pressure: 30.27 "Hg

Humidity: 100%

Dew point: 57 °F

Location of PrenzlauLocation

Historic Weather in Prenzlau — Graph

°F

Prenzlau temperature yesterday

Maximum temperature yesterday: 61 °F (at 2:30 PM)
Minimum temperature yesterday: 54 °F (at 8:30 PM)
Average temperature yesterday: 57 °F

Past Weeks' High & Low Weather Summary

 TemperatureHumidityPressure
High75 °F (Sep 16, 3:00 PM)100% (Sep 20, 12:30 AM)30.33 "Hg (Sep 20, 12:30 AM)
Low39 °F (Sep 23, 10:30 PM)41% (Sep 17, 3:30 PM)29.68 "Hg (Sep 22, 5:30 AM)
Average57 °F81%30.04 "Hg
* Reported Sep 16 7:00 AM — Oct 1 7:30 AM, Prenzlau, Weather by CustomWeather, © 2014

Note: Actual official high and low records may vary slightly from our data, if they occured in-between our weather recording intervals... More about our weather records

Advertising

Prenzlau weather history for previous 24 hours

 ConditionsComfort  
Time TempWeatherWind HumidityBarometerVisibility
7:30 AM
Oct 1
57 °FFog.2 mph100%30.27 "Hg1 mi
7:00 AM57 °FFog.5 mph100%30.27 "Hg1 mi
6:30 AM57 °FFog.3 mph100%30.27 "Hg1 mi
6:00 AM57 °FFog.3 mph100%30.27 "Hg1 mi
5:30 AM57 °FFog.6 mph100%30.27 "Hg1 mi
5:00 AM57 °FFog.3 mph100%30.27 "Hg1 mi
4:30 AM57 °FFog.No wind94%30.27 "Hg1 mi
4:00 AM57 °FFog.3 mph94%30.27 "Hg2 mi
3:30 AM55 °FFog.3 mph100%30.27 "Hg1 mi
3:00 AM55 °FLight rain. Fog.3 mph100%30.27 "Hg1 mi
2:30 AM55 °FLight rain. Fog.3 mph100%30.27 "Hg1 mi
2:00 AM55 °FFog.2 mph94%30.27 "Hg2 mi
1:30 AM54 °FFog.No wind100%30.27 "Hg1 mi
1:00 AM54 °FFog.No wind100%30.27 "Hg1 mi
12:30 AM54 °FFog.No wind100%30.27 "Hg1 mi
12:00 AM52 °FFog.No wind100%30.27 "Hg0 mi
11:30 PM
Sep 30
55 °FFog.2 mph94%30.27 "Hg0 mi
11:00 PM55 °FFog.No wind100%30.27 "Hg0 mi
10:30 PM55 °FLight rain. Fog.No wind100%30.27 "Hg1 mi
10:00 PM55 °FFog.No wind94%30.27 "Hg1 mi
9:30 PM54 °FFog.No wind100%30.27 "Hg1 mi
9:00 PM55 °FFog.No wind100%30.24 "Hg1 mi
8:30 PM54 °FFog.No wind100%30.24 "Hg0 mi
8:00 PM55 °FFog.No wind100%30.24 "Hg0 mi
7:30 PM57 °FCool.No wind100%30.24 "Hg1 mi
7:00 PM59 °FCool.2 mph94%30.24 "Hg1 mi
6:30 PM59 °FFog.No wind94%30.24 "Hg1 mi
6:00 PM61 °FFog.No wind94%30.24 "Hg2 mi
5:30 PM61 °FFog.No wind94%30.24 "Hg2 mi
5:00 PM61 °FFog.No wind94%30.24 "Hg2 mi
4:30 PM59 °FLight rain. Fog.3 mph94%30.24 "Hg2 mi
4:00 PM59 °FLight rain. Fog.2 mph94%30.24 "Hg2 mi
3:30 PM59 °FLight rain. Fog.3 mph94%30.21 "Hg2 mi
3:00 PM59 °FLight rain. Fog.3 mph100%30.21 "Hg2 mi
2:30 PM61 °FLight rain. Fog.2 mph94%30.21 "Hg2 mi
2:00 PM59 °FLight rain. Fog.2 mph94%30.21 "Hg2 mi
1:30 PM59 °FFog.2 mph94%30.21 "Hg3 mi
1:00 PM59 °FFog.No wind94%30.21 "Hg2 mi
12:30 PM59 °FFog.No wind94%30.21 "Hg2 mi
12:00 PM59 °FLight rain. Fog.No wind94%30.21 "Hg2 mi
11:30 AM59 °FLight rain. Fog.2 mph94%30.21 "Hg2 mi
11:00 AM57 °FLight rain. Fog.No wind100%30.21 "Hg2 mi
10:30 AM57 °FLight rain. Fog.2 mph94%30.21 "Hg2 mi
10:00 AM57 °FLight rain. Fog.No wind94%30.21 "Hg1 mi
9:30 AM57 °FLight rain. Fog.2 mph94%30.21 "Hg1 mi
9:00 AM57 °FLight rain. Fog.2 mph94%30.21 "Hg1 mi
8:30 AM55 °FFog.No wind100%30.21 "Hg1 mi
8:00 AM55 °FLight rain. Fog.No wind100%30.21 "Hg1 mi
Weather by CustomWeather, © 2014

See weather overviewHow to use our weather pages